When you browse on this site, cookies collect data to enhance your experience and personalize the content and advertising you see.
Visit our Privacy Policy to learn more. By continuing to use the site, you agree to this use of cookies and data.
  • In Sweden
  • List of Countries
  • For 7 days
  • Water Temperature
  • Satellite Maps
  • Weather Map
  • Weather Widgets
  • user-avatar
    Login

    Hourly Weather Usvyaty

    Today, 24 May, Friday

    Time Temperature Precipitation Wind Pressure Humidity
    00:00 +15°C° 0 mm 2 mps 743 mmHg 97%
    01:00 +14°C° 0 mm 2 mps 743 mmHg 98%
    02:00 +14°C° 0 mm 1 mps 743 mmHg 99%
    03:00 +14°C° 0.4 mm 1 mps 743 mmHg 98%
    04:00 +14°C° 0.4 mm 1 mps 743 mmHg 98%
    05:00 +15°C° 0.4 mm 2 mps 743 mmHg 97%
    06:00 +15°C° 0.1 mm 2 mps 743 mmHg 96%
    07:00 +15°C° 0.1 mm 2 mps 744 mmHg 95%
    08:00 +16°C° 0.1 mm 2 mps 744 mmHg 94%
    09:00 +16°C° 0 mm 2 mps 744 mmHg 92%
    10:00 +17°C° 0 mm 2 mps 744 mmHg 90%
    11:00 +17°C° 0 mm 2 mps 744 mmHg 87%
    12:00 +17°C° 0 mm 2 mps 744 mmHg 85%
    13:00 +17°C° 0 mm 2 mps 744 mmHg 82%
    14:00 +18°C° 0 mm 2 mps 744 mmHg 79%
    15:00 +18°C° 0 mm 2 mps 744 mmHg 79%
    16:00 +18°C° 0 mm 2 mps 744 mmHg 78%
    17:00 +18°C° 0 mm 2 mps 743 mmHg 78%
    18:00 +18°C° 0 mm 2 mps 743 mmHg 81%
    19:00 +18°C° 0 mm 1 mps 743 mmHg 84%
    20:00 +18°C° 0 mm 1 mps 743 mmHg 88%
    21:00 +16°C° 0 mm 1 mps 743 mmHg 90%
    22:00 +16°C° 0 mm 1 mps 743 mmHg 93%
    23:00 +15°C° 0 mm 1 mps 743 mmHg 95%

    Tomorrow, 25 May, Saturday

    Time Temperature Precipitation Wind Pressure Humidity
    00:00 +15°C° 0 mm 1 mps 742 mmHg 96%
    01:00 +14°C° 0 mm 2 mps 742 mmHg 97%
    02:00 +14°C° 0 mm 2 mps 742 mmHg 98%
    03:00 +14°C° 0 mm 2 mps 742 mmHg 97%
    04:00 +15°C° 0 mm 2 mps 742 mmHg 96%
    05:00 +15°C° 0 mm 2 mps 741 mmHg 94%
    06:00 +16°C° 0.1 mm 1 mps 741 mmHg 93%
    07:00 +16°C° 0.1 mm 1 mps 741 mmHg 92%
    08:00 +18°C° 0.1 mm 1 mps 741 mmHg 91%
    09:00 +19°C° 0.3 mm 1 mps 740 mmHg 87%
    10:00 +20°C° 0.3 mm 1 mps 740 mmHg 84%
    11:00 +21°C° 0.3 mm 1 mps 740 mmHg 80%
    12:00 +21°C° 1 mm 1 mps 740 mmHg 80%
    13:00 +21°C° 1 mm 1 mps 739 mmHg 80%
    14:00 +22°C° 1 mm 1 mps 739 mmHg 80%
    15:00 +20°C° 0.7 mm 2 mps 739 mmHg 81%
    16:00 +20°C° 0.7 mm 2 mps 739 mmHg 82%
    17:00 +20°C° 0.7 mm 2 mps 739 mmHg 83%
    18:00 +19°C° 0.1 mm 2 mps 739 mmHg 85%
    19:00 +17°C° 0.1 mm 2 mps 739 mmHg 88%
    20:00 +16°C° 0.1 mm 2 mps 739 mmHg 90%
    21:00 +15°C° 0 mm 2 mps 739 mmHg 92%
    22:00 +13°C° 0 mm 2 mps 739 mmHg 94%
    23:00 +12°C° 0 mm 2 mps 739 mmHg 96%

    Day after tomorrow, 26 May, Sunday

    Time Temperature Precipitation Wind Pressure Humidity
    00:00 +12°C° 0 mm 2 mps 740 mmHg 96%
    01:00 +10°C° 0 mm 2 mps 740 mmHg 97%
    02:00 +10°C° 0 mm 2 mps 740 mmHg 97%
    03:00 +10°C° 0 mm 1 mps 740 mmHg 97%
    04:00 +10°C° 0 mm 1 mps 741 mmHg 96%
    05:00 +10°C° 0 mm 1 mps 741 mmHg 96%
    06:00 +12°C° 0 mm 1 mps 741 mmHg 89%
    07:00 +13°C° 0 mm 2 mps 741 mmHg 82%
    08:00 +14°C° 0 mm 2 mps 741 mmHg 75%
    09:00 +16°C° 0 mm 2 mps 741 mmHg 68%
    10:00 +17°C° 0 mm 2 mps 741 mmHg 62%
    11:00 +18°C° 0 mm 3 mps 741 mmHg 55%
    12:00 +18°C° 0 mm 3 mps 741 mmHg 54%
    13:00 +19°C° 0 mm 3 mps 740 mmHg 54%
    14:00 +19°C° 0 mm 3 mps 740 mmHg 53%
    15:00 +19°C° 0 mm 3 mps 740 mmHg 53%
    16:00 +19°C° 0 mm 3 mps 740 mmHg 53%
    17:00 +19°C° 0 mm 4 mps 740 mmHg 53%
    18:00 +18°C° 0 mm 3 mps 740 mmHg 61%
    19:00 +16°C° 0 mm 3 mps 740 mmHg 69%
    20:00 +15°C° 0 mm 2 mps 740 mmHg 77%
    21:00 +14°C° 0.1 mm 2 mps 740 mmHg 82%
    22:00 +13°C° 0.1 mm 2 mps 740 mmHg 87%
    23:00 +12°C° 0.1 mm 3 mps 740 mmHg 91%

    27 May, Monday

    Time Temperature Precipitation Wind Pressure Humidity
    00:00 +11°C° 0 mm 3 mps 740 mmHg 92%
    01:00 +10°C° 0 mm 3 mps 741 mmHg 93%
    02:00 +9°C° 0 mm 3 mps 741 mmHg 94%
    03:00 +9°C° 0 mm 3 mps 741 mmHg 93%
    04:00 +9°C° 0 mm 3 mps 741 mmHg 93%
    05:00 +9°C° 0 mm 3 mps 741 mmHg 92%
    06:00 +10°C° 0.1 mm 4 mps 742 mmHg 88%
    07:00 +11°C° 0.1 mm 4 mps 742 mmHg 83%
    08:00 +12°C° 0.1 mm 4 mps 742 mmHg 79%
    09:00 +13°C° 0 mm 4 mps 742 mmHg 74%
    10:00 +14°C° 0 mm 5 mps 743 mmHg 70%
    11:00 +15°C° 0 mm 5 mps 743 mmHg 65%
    12:00 +16°C° 0.1 mm 5 mps 743 mmHg 63%
    13:00 +17°C° 0.1 mm 5 mps 743 mmHg 60%
    14:00 +19°C° 0.1 mm 5 mps 743 mmHg 58%
    15:00 +19°C° 0 mm 4 mps 743 mmHg 60%
    16:00 +19°C° 0 mm 4 mps 743 mmHg 62%
    17:00 +19°C° 0 mm 3 mps 743 mmHg 64%
    18:00 +18°C° 0 mm 3 mps 743 mmHg 72%
    19:00 +17°C° 0 mm 2 mps 743 mmHg 79%
    20:00 +16°C° 0 mm 2 mps 743 mmHg 87%
    21:00 +15°C° 0.1 mm 2 mps 743 mmHg 89%
    22:00 +14°C° 0.1 mm 3 mps 743 mmHg 91%
    23:00 +14°C° 0.1 mm 3 mps 743 mmHg 93%

    28 May, Tuesday

    Time Temperature Precipitation Wind Pressure Humidity
    00:00 +14°C° 0 mm 3 mps 743 mmHg 94%
    01:00 +14°C° 0 mm 3 mps 743 mmHg 94%
    02:00 +14°C° 0 mm 3 mps 743 mmHg 95%
    03:00 +14°C° 0 mm 3 mps 744 mmHg 95%
    04:00 +15°C° 0 mm 2 mps 744 mmHg 95%
    05:00 +15°C° 0 mm 2 mps 744 mmHg 95%
    06:00 +16°C° 0 mm 2 mps 744 mmHg 89%
    07:00 +18°C° 0 mm 2 mps 745 mmHg 82%
    08:00 +19°C° 0 mm 2 mps 745 mmHg 76%
    09:00 +20°C° 0.1 mm 2 mps 745 mmHg 72%
    10:00 +21°C° 0.1 mm 2 mps 745 mmHg 68%
    11:00 +24°C° 0.1 mm 2 mps 745 mmHg 64%
    12:00 +24°C° 0.4 mm 2 mps 745 mmHg 66%
    13:00 +24°C° 0.4 mm 2 mps 745 mmHg 67%
    14:00 +24°C° 0.4 mm 2 mps 745 mmHg 69%
    15:00 +23°C° 1.2 mm 2 mps 744 mmHg 77%
    16:00 +21°C° 1.2 mm 1 mps 744 mmHg 85%
    17:00 +20°C° 1.2 mm 1 mps 744 mmHg 93%
    18:00 +20°C° 1 mm 1 mps 744 mmHg 93%
    19:00 +19°C° 1 mm 1 mps 744 mmHg 94%
    20:00 +19°C° 1 mm 1 mps 744 mmHg 95%
    21:00 +18°C° 0.1 mm 2 mps 744 mmHg 95%
    22:00 +17°C° 0.1 mm 2 mps 744 mmHg 95%
    23:00 +17°C° 0.1 mm 3 mps 743 mmHg 95%

    29 May, Wednesday

    Time Temperature Precipitation Wind Pressure Humidity
    00:00 +17°C° 0 mm 3 mps 743 mmHg 95%
    01:00 +17°C° 0 mm 3 mps 743 mmHg 95%
    02:00 +17°C° 0 mm 3 mps 743 mmHg 96%
    03:00 +17°C° 0 mm 3 mps 743 mmHg 96%
    04:00 +17°C° 0 mm 3 mps 743 mmHg 95%
    05:00 +18°C° 0 mm 3 mps 743 mmHg 95%
    06:00 +19°C° 0 mm 4 mps 742 mmHg 87%
    07:00 +20°C° 0 mm 5 mps 742 mmHg 79%
    08:00 +21°C° 0 mm 5 mps 742 mmHg 71%
    09:00 +23°C° 0 mm 5 mps 742 mmHg 68%
    10:00 +25°C° 0 mm 5 mps 742 mmHg 65%
    11:00 +26°C° 0 mm 5 mps 742 mmHg 62%
    12:00 +26°C° 0.6 mm 5 mps 742 mmHg 66%
    13:00 +26°C° 0.6 mm 5 mps 742 mmHg 70%
    14:00 +26°C° 0.6 mm 5 mps 742 mmHg 73%
    15:00 +25°C° 1 mm 5 mps 742 mmHg 77%
    16:00 +23°C° 1 mm 4 mps 742 mmHg 80%
    17:00 +22°C° 1 mm 4 mps 742 mmHg 83%
    18:00 +22°C° 0.4 mm 3 mps 742 mmHg 86%
    19:00 +21°C° 0.4 mm 3 mps 742 mmHg 88%
    20:00 +20°C° 0.4 mm 3 mps 742 mmHg 90%
    21:00 +20°C° 0.9 mm 3 mps 742 mmHg 92%
    22:00 +19°C° 0.9 mm 2 mps 742 mmHg 93%
    23:00 +18°C° 0.9 mm 2 mps 742 mmHg 94%
    Show more